period_start,C,m1,H,J0,J1,J2,J3,J4,J5,JA,JB,JC,JD,JJ,JK,JN,#
2018-02-15 00:04:33,0.16,8.72,0.00,23.12,26.87,30.06,14.15,53.38,1022.48,2022.99,1301.79,1624.78,1793.09,599.93,599.20,57.16,0000 0000 0000 0000 000000
2018-02-15 00:09:34,0.12,8.73,0.00,23.10,26.87,30.06,14.09,53.50,1022.48,2022.99,1300.97,1624.03,1792.34,599.95,599.20,57.21,0000 0000 0000 0000 000000
2018-02-15 00:14:35,0.14,8.74,0.00,23.10,26.87,30.04,14.09,53.39,1022.48,2022.99,1300.08,1623.53,1791.90,599.89,599.03,57.26,0000 0000 0000 0000 000000
2018-02-15 00:19:37,0.12,8.74,0.00,23.11,26.87,30.05,14.16,53.59,1022.48,2022.99,1299.22,1622.99,1791.08,599.97,599.23,57.31,0000 0000 0000 0000 000000
2018-02-15 00:24:38,0.16,8.75,0.00,23.10,26.87,30.03,14.05,53.56,1022.49,2023.00,1298.47,1622.36,1790.57,599.81,599.07,57.36,0000 0000 0000 0000 000000
2018-02-15 00:29:39,0.08,8.76,0.00,23.10,26.85,30.03,14.20,53.70,1022.49,2023.00,1297.64,1621.97,1789.98,599.95,599.23,57.41,0000 0000 0000 0000 000000
2018-02-15 00:34:40,0.14,8.76,0.00,23.12,26.85,30.00,14.04,53.57,1022.51,2023.01,1296.85,1621.27,1789.22,599.85,599.11,57.47,0000 0000 0000 0000 000000
2018-02-15 00:39:42,0.08,8.77,0.00,23.12,26.85,30.00,14.24,53.58,1022.56,2023.01,1296.02,1620.94,1788.72,600.27,599.62,57.52,0000 0000 0000 0000 000000
2018-02-15 00:44:43,0.15,8.78,0.00,23.12,26.85,30.01,14.12,53.59,1022.48,2023.01,1295.13,1620.14,1788.02,600.19,599.37,57.57,0000 0000 0000 0000 000000
2018-02-15 00:49:45,0.11,8.78,0.00,23.12,26.84,29.99,14.12,53.59,1022.49,2023.02,1294.38,1619.93,1787.40,600.14,599.33,57.62,0000 0000 0000 0000 000000
2018-02-15 00:54:46,0.12,8.79,0.00,23.12,26.83,29.99,14.14,53.58,1022.48,2023.02,1293.63,1619.13,1786.91,600.01,599.23,57.67,0000 0000 0000 0000 000000
2018-02-15 00:59:47,0.09,8.79,0.00,23.14,26.82,30.00,14.13,53.61,1022.48,2023.04,1292.85,1618.86,1786.09,600.02,599.26,57.72,0000 0000 0000 0000 000000
2018-02-15 01:04:49,0.15,8.80,0.00,23.14,26.82,30.00,14.11,53.51,1022.49,2023.05,1292.02,1618.08,1785.62,600.02,599.17,57.77,0000 0000 0000 0000 000000
2018-02-15 01:09:50,0.11,8.81,0.00,23.15,26.82,29.98,14.10,53.58,1022.48,2023.05,1291.15,1617.70,1784.99,600.01,599.11,57.82,0000 0000 0000 0000 000000
2018-02-15 01:14:51,0.14,8.81,0.00,23.15,26.82,29.98,14.12,53.57,1022.48,2023.04,1290.35,1617.04,1784.24,599.90,599.14,57.87,0000 0000 0000 0000 000000
2018-02-15 01:19:52,0.11,8.82,0.00,23.16,26.82,29.97,14.10,53.58,1022.48,2023.07,1289.57,1616.69,1783.86,599.89,599.05,57.92,0000 0000 0000 0000 000000
2018-02-15 01:24:53,0.10,8.83,0.00,23.17,26.82,29.97,14.06,53.61,1022.48,2023.09,1288.87,1616.02,1783.07,599.95,599.05,57.97,0000 0000 0000 0000 000000
2018-02-15 01:29:55,0.14,8.83,0.00,23.17,26.82,29.97,14.13,53.50,1022.48,2023.10,1288.04,1615.64,1782.43,599.82,598.95,58.02,0000 0000 0000 0000 000000
2018-02-15 01:34:56,0.11,8.84,0.00,23.17,26.82,29.99,14.06,53.56,1022.48,2023.13,1287.20,1615.02,1781.92,599.84,598.89,58.07,0000 0000 0000 0000 000000
2018-02-15 01:39:57,0.15,8.84,0.00,23.17,26.82,29.97,14.07,53.46,1022.48,2023.07,1286.38,1614.43,1781.10,600.06,599.07,58.12,0000 0000 0000 0000 000000
2018-02-15 01:44:59,0.10,8.85,0.00,23.17,26.82,29.98,14.08,53.52,1022.48,2023.06,1285.66,1613.99,1780.51,599.93,598.94,58.17,0000 0000 0000 0000 000000
2018-02-15 01:50:00,0.12,8.86,0.00,23.18,26.82,29.98,14.06,53.45,1022.48,2023.11,1284.89,1613.31,1779.99,599.90,599.01,58.22,0000 0000 0000 0000 000000
2018-02-15 01:55:01,0.11,8.86,0.00,23.18,26.82,29.99,14.12,53.53,1022.48,2023.15,1284.03,1612.98,1779.25,600.07,599.17,58.27,0000 0000 0000 0000 000000
2018-02-15 02:00:02,0.15,8.87,0.00,23.18,26.82,29.98,14.06,53.47,1022.47,2023.17,1283.15,1612.25,1778.74,599.84,598.84,58.32,0000 0000 0000 0000 000000
2018-02-15 02:05:04,0.10,8.88,0.00,23.17,26.82,29.98,14.09,53.64,1022.48,2023.17,1282.35,1611.89,1778.00,599.71,598.90,58.38,0000 0000 0000 0000 000000
2018-02-15 02:10:05,0.18,8.88,0.00,23.19,26.82,29.98,14.14,53.67,1022.48,2023.16,1281.47,1611.09,1777.22,600.26,599.29,58.43,0000 0000 0000 0000 000000
2018-02-15 02:15:06,0.11,8.89,0.00,23.20,26.82,29.98,14.08,53.76,1022.48,2023.14,1280.58,1610.68,1776.74,600.02,598.99,58.48,0000 0000 0000 0000 000000
2018-02-15 02:20:07,0.10,8.90,0.00,23.22,26.82,29.98,14.05,53.67,1022.48,2023.10,1279.73,1610.01,1776.01,599.97,599.02,58.53,0000 0000 0000 0000 000000
2018-02-15 02:25:09,0.15,8.91,0.00,23.23,26.82,30.01,14.10,53.77,1022.42,2023.14,1278.94,1609.39,1775.29,599.97,598.92,58.58,0000 0000 0000 0000 000000
2018-02-15 02:30:10,0.12,8.91,0.00,23.22,26.82,29.98,14.11,53.70,1022.43,2023.24,1278.07,1608.95,1774.66,599.89,598.84,58.63,0000 0000 0000 0000 000000
2018-02-15 02:35:12,0.14,8.92,0.00,23.24,26.82,29.98,14.10,53.73,1022.47,2023.11,1277.17,1608.15,1773.87,599.95,598.89,58.68,0000 0000 0000 0000 000000
2018-02-15 02:40:13,0.13,8.93,0.00,23.26,26.82,30.00,14.17,53.88,1022.45,2023.06,1276.27,1607.68,1773.06,599.98,598.94,58.73,0000 0000 0000 0000 000000
2018-02-15 02:45:14,0.14,8.93,0.00,23.27,26.82,30.00,14.11,53.77,1022.36,2023.07,1275.44,1607.02,1772.43,599.93,598.76,58.78,0000 0000 0000 0000 000000
2018-02-15 02:50:15,0.14,8.94,0.00,23.26,26.82,30.00,14.11,53.70,1022.44,2023.08,1274.62,1606.40,1771.83,600.19,599.03,58.83,0000 0000 0000 0000 000000
2018-02-15 02:55:16,0.09,8.95,0.00,23.27,26.82,30.00,14.09,53.75,1022.47,2023.09,1273.76,1605.99,1771.06,600.12,598.96,58.88,0000 0000 0000 0000 000000
2018-02-15 03:00:17,0.16,8.95,0.00,23.27,26.82,30.00,14.14,53.71,1022.48,2023.19,1272.89,1605.30,1770.47,600.08,598.90,58.93,0000 0000 0000 0000 000000
2018-02-15 03:05:19,0.08,8.96,0.00,23.28,26.83,30.01,14.08,53.84,1022.48,2023.13,1272.04,1604.89,1769.85,599.93,598.72,58.98,0000 0000 0000 0000 000000
2018-02-15 03:10:20,0.17,8.97,0.00,23.30,26.84,30.01,14.15,53.82,1022.48,2023.16,1271.17,1604.09,1769.07,600.31,599.23,59.03,0000 0000 0000 0000 000000
2018-02-15 03:15:21,0.14,8.97,0.00,23.32,26.85,30.02,14.11,53.95,1022.48,2023.08,1270.26,1603.62,1768.38,600.06,598.90,59.08,0000 0000 0000 0000 000000
2018-02-15 03:20:23,0.11,8.98,0.00,23.32,26.85,30.01,14.11,53.87,1022.47,2023.06,1269.38,1603.00,1767.81,600.05,598.82,59.13,0000 0000 0000 0000 000000
2018-02-15 03:25:25,0.15,8.99,0.00,23.33,26.85,30.03,13.99,53.93,1022.47,2023.05,1268.54,1602.43,1767.04,599.84,598.61,59.18,0000 0000 0000 0000 000000
2018-02-15 03:30:26,0.11,8.99,0.00,23.33,26.85,30.03,14.15,53.97,1022.48,2023.02,1267.66,1601.92,1766.25,600.16,598.97,59.24,0000 0000 0000 0000 000000
2018-02-15 03:35:27,0.13,9.00,0.00,23.36,26.86,30.02,14.11,54.01,1022.48,2023.01,1266.84,1601.13,1765.72,599.96,598.70,59.29,0000 0000 0000 0000 000000
2018-02-15 03:40:28,0.11,9.01,0.00,23.37,26.87,30.03,14.08,53.93,1022.48,2023.01,1265.97,1600.74,1764.99,600.23,598.81,59.34,0000 0000 0000 0000 000000
2018-02-15 03:45:29,0.15,9.02,0.00,23.38,26.87,30.05,14.12,53.98,1022.48,2023.01,1265.08,1600.03,1764.17,600.02,598.72,59.39,0000 0000 0000 0000 000000
2018-02-15 03:50:31,0.15,9.02,0.00,23.40,26.87,30.04,14.03,53.87,1022.48,2023.01,1264.30,1599.53,1763.60,599.75,598.48,59.44,0000 0000 0000 0000 000000
2018-02-15 03:55:32,0.10,9.03,0.00,23.43,26.88,30.04,14.19,53.88,1022.48,2023.01,1263.47,1599.01,1762.92,599.97,598.52,59.49,0000 0000 0000 0000 000000
2018-02-15 04:00:33,0.16,9.03,0.00,23.43,26.90,30.07,14.07,53.79,1022.48,2023.01,1262.57,1598.58,1762.11,600.09,598.59,59.54,0000 0000 0000 0000 000000
2018-02-15 04:05:35,0.13,9.04,0.00,23.45,26.90,30.06,14.09,53.80,1022.48,2023.00,1261.60,1597.95,1761.43,600.07,598.57,59.59,0000 0000 0000 0000 000000
2018-02-15 04:10:36,0.16,9.05,0.00,23.47,26.90,30.07,14.06,53.74,1022.48,2023.00,1260.70,1597.12,1760.68,599.90,598.23,59.64,0000 0000 0000 0000 000000
2018-02-15 04:15:38,0.13,9.06,0.00,23.47,26.92,30.07,14.15,53.82,1022.48,2023.00,1259.78,1596.56,1759.98,600.17,598.74,59.69,0000 0000 0000 0000 000000
2018-02-15 04:20:39,0.11,9.07,0.00,23.47,26.92,30.09,14.14,53.73,1022.48,2023.00,1258.92,1595.98,1759.16,600.05,598.59,59.74,0000 0000 0000 0000 000000
2018-02-15 04:25:40,0.17,9.07,0.00,23.48,26.92,30.09,14.17,53.74,1022.48,2023.00,1258.02,1595.28,1758.42,600.13,598.58,59.79,0000 0000 0000 0000 000000
2018-02-15 04:30:41,0.12,9.08,0.00,23.50,26.94,30.10,14.07,53.71,1022.48,2023.00,1257.10,1594.78,1757.79,600.08,598.55,59.84,0000 0000 0000 0000 000000
2018-02-15 04:35:43,0.15,9.09,0.00,23.51,26.95,30.11,14.07,53.83,1022.48,2022.99,1256.21,1594.04,1757.01,600.13,598.55,59.89,0000 0000 0000 0000 000000
2018-02-15 04:40:44,0.17,9.09,0.00,23.52,26.95,30.12,14.11,53.79,1022.48,2022.99,1255.39,1593.52,1756.22,599.91,598.41,59.94,0000 0000 0000 0000 000000
2018-02-15 04:45:45,0.10,9.10,0.00,23.52,26.96,30.13,14.07,53.82,1022.48,2022.99,1254.55,1592.99,1755.72,599.93,598.35,59.99,0000 0000 0000 0000 000000
2018-02-15 04:50:46,0.14,9.11,0.00,23.52,26.97,30.14,14.11,53.98,1022.48,2022.99,1253.73,1592.29,1755.00,600.02,598.45,60.04,0000 0000 0000 0000 000000
2018-02-15 04:55:48,0.10,9.12,0.00,23.52,26.97,30.17,14.08,53.98,1022.48,2022.98,1252.88,1591.90,1754.17,599.85,598.25,60.09,0000 0000 0000 0000 000000
2018-02-15 05:00:49,0.16,5.47,0.00,23.55,27.00,30.16,12.24,45.63,1022.49,2025.16,2206.51,2244.94,2536.09,533.57,532.13,0.01,0000 0000 0000 0000 000002
2018-02-15 05:05:50,0.12,0.00,0.00,23.58,27.00,30.15,14.02,49.66,1022.49,2028.00,3448.64,3097.46,3557.10,599.98,598.30,0.03,0000 0000 0000 0000 000000
2018-02-15 05:10:51,0.13,0.00,0.00,23.59,27.00,30.18,14.02,49.42,1022.50,2028.00,3444.47,3095.11,3554.09,599.93,598.29,0.08,0000 0000 0000 0000 000000
2018-02-15 05:15:53,0.14,0.01,0.00,23.59,27.01,30.18,14.05,49.23,1022.48,2027.96,3440.79,3092.77,3551.08,599.91,598.21,0.13,0000 0000 0000 0000 000000
2018-02-15 05:20:54,0.15,0.02,0.00,23.60,27.02,30.22,14.06,49.27,1022.49,2027.96,3437.27,3090.52,3548.14,600.01,598.29,0.18,0000 0000 0000 0000 000000
2018-02-15 05:25:55,0.15,0.03,0.00,23.61,27.02,30.22,14.03,49.19,1022.50,2027.96,3433.83,3088.31,3545.34,599.98,598.06,0.23,0000 0000 0000 0000 000000
2018-02-15 05:30:56,0.15,0.03,0.00,23.61,27.02,30.22,14.00,49.08,1022.50,2027.95,3430.43,3086.10,3542.45,600.14,598.42,0.28,0000 0000 0000 0000 000000
2018-02-15 05:35:58,0.14,0.04,0.00,23.62,27.03,30.23,13.97,49.02,1022.52,2027.89,3427.05,3083.86,3539.62,599.62,597.93,0.33,0000 0000 0000 0000 000000
2018-02-15 05:40:59,0.14,0.05,0.00,23.62,27.05,30.23,14.04,49.03,1022.50,2027.78,3423.65,3081.60,3536.76,599.86,598.09,0.38,0000 0000 0000 0000 000000
2018-02-15 05:46:00,0.15,0.06,0.00,23.64,27.05,30.26,14.03,48.99,1022.49,2027.75,3420.23,3079.35,3533.95,599.80,597.94,0.43,0000 0000 0000 0000 000000
2018-02-15 05:51:01,0.14,0.07,0.00,23.67,27.05,30.25,14.00,49.06,1022.50,2027.64,3416.79,3077.11,3531.06,599.94,598.11,0.48,0000 0000 0000 0000 000000
2018-02-15 05:56:02,0.15,0.07,0.00,23.67,27.05,30.25,14.05,48.96,1022.52,2027.62,3413.33,3074.81,3528.16,599.82,597.94,0.53,0000 0000 0000 0000 000000
2018-02-15 06:01:04,0.14,0.08,0.00,23.69,27.06,30.26,14.04,48.92,1022.66,2027.49,3409.91,3072.56,3525.28,600.03,598.22,0.58,0000 0000 0000 0000 000000
2018-02-15 06:06:05,0.14,0.09,0.00,23.69,27.07,30.27,14.06,49.01,1022.79,2027.49,3406.51,3070.39,3522.43,599.72,597.98,0.63,0000 0000 0000 0000 000000
2018-02-15 06:11:07,0.14,0.10,0.00,23.69,27.07,30.26,13.96,49.00,1022.56,2027.27,3402.99,3068.11,3519.58,599.61,597.91,0.68,0000 0000 0000 0000 000000
2018-02-15 06:16:08,0.15,0.10,0.00,23.70,27.07,30.28,13.99,49.02,1022.54,2027.22,3399.54,3065.81,3516.80,599.97,598.08,0.73,0000 0000 0000 0000 000000
2018-02-15 06:21:10,0.15,0.11,0.00,23.71,27.07,30.29,14.08,49.02,1022.59,2027.13,3395.99,3063.46,3513.89,600.19,598.25,0.78,0000 0000 0000 0000 000000
2018-02-15 06:26:11,0.15,0.12,0.00,23.70,27.08,30.30,14.15,48.97,1022.59,2027.06,3392.50,3061.10,3510.97,600.66,598.73,0.83,0000 0000 0000 0000 000000
2018-02-15 06:31:12,0.14,0.13,0.00,23.71,27.09,30.32,14.00,48.91,1022.77,2027.04,3389.26,3058.86,3508.16,599.92,598.17,0.88,0000 0000 0000 0000 000000
2018-02-15 06:36:13,0.15,0.13,0.00,23.72,27.10,30.31,14.00,48.96,1022.90,2027.08,3385.96,3056.65,3505.34,599.76,598.03,0.93,0000 0000 0000 0000 000000
2018-02-15 06:41:15,0.14,0.14,0.00,23.72,27.10,30.32,13.99,49.03,1022.95,2027.05,3382.54,3054.39,3502.48,600.03,598.32,0.99,0000 0000 0000 0000 000000
2018-02-15 06:46:16,0.16,0.15,0.00,23.74,27.10,30.32,13.95,49.02,1022.96,2027.06,3379.12,3052.09,3499.60,599.99,598.25,1.04,0000 0000 0000 0000 000000
2018-02-15 06:51:18,0.15,0.16,0.00,23.74,27.10,30.33,14.05,49.02,1022.96,2027.02,3375.69,3049.73,3496.69,600.13,598.44,1.09,0000 0000 0000 0000 000000
2018-02-15 06:56:19,0.15,0.16,0.00,23.73,27.10,30.34,14.09,49.19,1022.96,2027.01,3372.29,3047.45,3493.77,600.15,598.43,1.14,0000 0000 0000 0000 000000
2018-02-15 07:01:20,0.15,0.17,0.00,23.74,27.12,30.33,14.06,49.10,1022.96,2027.01,3368.90,3045.14,3490.89,600.09,598.35,1.19,0000 0000 0000 0000 000000
2018-02-15 07:06:21,0.15,0.18,0.00,23.74,27.12,30.34,14.03,49.07,1022.96,2027.01,3365.62,3042.98,3488.14,600.01,598.31,1.24,0000 0000 0000 0000 000000
2018-02-15 07:11:23,0.15,0.19,0.00,23.76,27.12,30.36,14.08,49.00,1022.96,2027.00,3362.35,3040.76,3485.30,600.34,598.46,1.29,0000 0000 0000 0000 000000
2018-02-15 07:16:24,0.15,0.20,0.00,23.78,27.13,30.35,13.98,49.10,1022.96,2027.00,3359.05,3038.52,3482.56,600.04,598.22,1.34,0000 0000 0000 0000 000000
2018-02-15 07:21:26,0.15,0.20,0.00,23.77,27.15,30.37,13.99,49.08,1022.96,2027.00,3355.75,3036.30,3479.76,599.95,598.15,1.39,0000 0000 0000 0000 000000
2018-02-15 07:26:28,0.14,0.21,0.00,23.77,27.15,30.37,14.01,49.02,1022.97,2027.00,3352.53,3034.14,3477.11,599.87,598.15,1.44,0000 0000 0000 0000 000000
2018-02-15 07:31:29,0.14,0.22,0.00,23.77,27.15,30.38,14.04,48.96,1022.96,2027.00,3349.39,3032.04,3474.40,600.25,598.45,1.49,0000 0000 0000 0000 000000
2018-02-15 07:36:31,0.15,0.23,0.00,23.77,27.17,30.39,14.07,48.98,1022.96,2027.00,3346.09,3029.78,3471.61,600.09,598.30,1.54,0000 0000 0000 0000 000000
2018-02-15 07:41:32,0.14,0.23,0.00,23.77,27.17,30.40,14.01,48.98,1022.96,2026.99,3342.83,3027.56,3468.87,599.87,598.16,1.59,0000 0000 0000 0000 000000
2018-02-15 07:46:33,0.15,0.24,0.00,23.77,27.17,30.41,13.95,49.01,1022.97,2026.98,3339.62,3025.43,3466.13,600.10,598.25,1.64,0000 0000 0000 0000 000000
2018-02-15 07:51:34,0.15,0.25,0.00,23.77,27.20,30.41,14.07,49.02,1022.96,2026.97,3336.41,3023.25,3463.40,599.99,598.12,1.69,0000 0000 0000 0000 000000
2018-02-15 07:56:35,0.15,0.26,0.00,23.79,27.20,30.41,14.10,49.17,1022.97,2026.95,3333.16,3021.04,3460.65,600.03,598.21,1.74,0000 0000 0000 0000 000000
2018-02-15 08:01:37,0.14,0.26,0.00,23.79,27.20,30.42,14.07,49.00,1022.98,2026.91,3329.96,3018.87,3457.96,600.34,598.53,1.79,0000 0000 0000 0000 000000
2018-02-15 08:06:38,0.13,0.27,0.00,23.79,27.22,30.41,14.09,49.04,1022.98,2026.75,3326.83,3016.69,3455.33,600.19,598.30,1.84,0000 0000 0000 0000 000000
2018-02-15 08:11:39,0.12,0.28,0.00,23.80,27.22,30.40,14.06,48.97,1022.98,2026.60,3323.73,3014.59,3452.73,600.32,598.48,1.89,0000 0000 0000 0000 000000
2018-02-15 08:16:40,0.14,0.28,0.00,23.80,27.22,30.43,13.95,49.08,1022.99,2026.49,3320.66,3012.54,3450.12,599.97,598.13,1.94,0000 0000 0000 0000 000000
2018-02-15 08:21:41,0.12,0.29,0.00,23.81,27.24,30.44,13.99,48.96,1023.00,2026.42,3317.54,3010.40,3447.48,599.78,597.89,1.99,0000 0000 0000 0000 000000
2018-02-15 08:26:43,0.13,0.30,0.00,23.80,27.25,30.45,14.00,48.92,1023.07,2026.21,3314.44,3008.36,3444.84,600.00,598.32,2.04,0000 0000 0000 0000 000000
2018-02-15 08:31:44,0.14,0.30,0.00,23.80,27.25,30.44,14.02,48.94,1023.12,2026.12,3311.34,3006.41,3442.19,600.10,598.33,2.09,0000 0000 0000 0000 000000
2018-02-15 08:36:45,0.14,0.31,0.00,23.80,27.27,30.47,13.96,49.02,1023.10,2026.05,3308.23,3004.31,3439.58,600.01,598.32,2.14,0000 0000 0000 0000 000000
2018-02-15 08:41:46,0.14,0.32,0.00,23.82,27.27,30.46,14.05,48.93,1023.12,2026.04,3305.14,3002.21,3436.96,600.15,598.35,2.19,0000 0000 0000 0000 000000
2018-02-15 08:46:47,0.13,0.33,0.00,23.82,27.27,30.48,14.06,48.94,1023.38,2026.04,3302.24,3000.28,3434.44,600.15,598.53,2.24,0000 0000 0000 0000 000000
2018-02-15 08:51:49,0.13,0.33,0.00,23.81,27.28,30.48,14.01,48.93,1023.37,2026.02,3299.24,2998.26,3431.95,600.02,598.38,2.29,0000 0000 0000 0000 000000
2018-02-15 08:56:50,0.13,0.34,0.00,23.82,27.30,30.49,14.01,48.92,1023.38,2026.03,3296.34,2996.29,3429.41,600.17,598.49,2.34,0000 0000 0000 0000 000000
2018-02-15 09:01:51,0.14,0.35,0.00,23.82,27.30,30.50,13.99,48.84,1023.40,2026.00,3293.31,2994.22,3426.89,600.06,598.35,2.39,0000 0000 0000 0000 000000
2018-02-15 09:06:53,0.14,0.35,0.00,23.83,27.30,30.49,13.96,48.80,1023.23,2026.00,3290.32,2992.13,3424.16,600.17,598.36,2.44,0000 0000 0000 0000 000000
2018-02-15 09:11:54,0.14,0.36,0.00,23.83,27.30,30.50,13.92,48.84,1023.05,2026.00,3287.32,2990.15,3421.65,599.81,598.00,2.49,0000 0000 0000 0000 000000
2018-02-15 09:16:55,0.13,0.37,0.00,23.85,27.30,30.50,13.97,48.83,1023.11,2026.00,3284.48,2988.19,3419.15,599.92,598.04,2.54,0000 0000 0000 0000 000000
2018-02-15 09:21:56,0.14,0.37,0.00,23.85,27.30,30.51,14.07,48.86,1023.23,2026.00,3281.50,2986.23,3416.63,600.41,598.58,2.59,0000 0000 0000 0000 000000
2018-02-15 09:26:58,0.13,0.38,0.00,23.83,27.30,30.51,14.16,48.98,1023.17,2026.00,3278.56,2984.30,3414.26,600.15,598.22,2.64,0000 0000 0000 0000 000000
2018-02-15 09:31:59,0.14,0.39,0.00,23.84,27.31,30.53,14.04,48.90,1023.10,2026.00,3275.62,2982.33,3411.74,600.14,598.28,2.69,0000 0000 0000 0000 000000
2018-02-15 09:37:00,0.13,0.40,0.00,23.84,27.32,30.53,14.01,48.89,1023.06,2026.00,3272.83,2980.39,3409.34,600.02,598.11,2.74,0000 0000 0000 0000 000000
2018-02-15 09:42:01,0.13,0.40,0.00,23.85,27.32,30.53,14.00,48.89,1023.06,2026.00,3270.05,2978.50,3406.98,599.93,597.99,2.79,0000 0000 0000 0000 000000
2018-02-15 09:47:03,0.13,0.41,0.00,23.86,27.32,30.54,14.05,48.84,1023.00,2026.00,3267.17,2976.60,3404.58,600.21,598.32,2.84,0000 0000 0000 0000 000000
2018-02-15 09:52:04,0.13,0.42,0.00,23.87,27.32,30.53,14.01,48.83,1022.98,2025.99,3264.29,2974.65,3402.14,599.91,597.92,2.89,0000 0000 0000 0000 000000
2018-02-15 09:57:05,0.13,0.42,0.00,23.88,27.32,30.54,14.04,48.72,1022.98,2025.99,3261.68,2972.75,3399.83,600.29,598.27,2.94,0000 0000 0000 0000 000000
2018-02-15 10:02:07,0.13,0.43,0.00,23.89,27.32,30.54,14.09,48.88,1023.03,2025.99,3258.84,2970.85,3397.42,600.09,598.15,2.99,0000 0000 0000 0000 000000
2018-02-15 10:07:08,0.13,0.44,0.00,23.88,27.32,30.55,14.02,48.76,1022.99,2025.98,3255.98,2968.88,3395.03,599.98,597.95,3.04,0000 0000 0000 0000 000000
2018-02-15 10:12:09,0.13,0.44,0.00,23.90,27.32,30.54,14.01,48.73,1023.03,2025.98,3253.16,2966.96,3392.67,600.01,598.00,3.09,0000 0000 0000 0000 000000
2018-02-15 10:17:10,0.13,0.45,0.00,23.90,27.32,30.54,14.04,48.73,1023.07,2025.98,3250.34,2965.10,3390.51,600.23,598.27,3.14,0000 0000 0000 0000 000000
2018-02-15 10:22:12,0.13,0.46,0.00,23.90,27.32,30.56,14.05,48.82,1023.24,2025.98,3247.51,2963.21,3388.28,600.14,598.26,3.19,0000 0000 0000 0000 000000
2018-02-15 10:27:13,0.13,0.46,0.00,23.89,27.32,30.57,14.07,48.81,1023.25,2025.98,3244.69,2961.34,3385.99,600.03,598.16,3.24,0000 0000 0000 0000 000000
2018-02-15 10:32:14,0.13,0.47,0.00,23.87,27.33,30.57,14.04,48.80,1023.31,2025.98,3241.91,2959.47,3383.64,599.98,598.17,3.30,0000 0000 0000 0000 000000
2018-02-15 10:37:15,0.13,0.48,0.00,23.86,27.35,30.58,14.08,48.82,1023.41,2025.98,3239.19,2957.61,3381.29,600.21,598.41,3.35,0000 0000 0000 0000 000000
2018-02-15 10:42:17,0.13,0.48,0.00,23.87,27.35,30.57,14.04,48.91,1023.42,2025.99,3236.48,2955.73,3378.97,599.96,598.32,3.40,0000 0000 0000 0000 000000
2018-02-15 10:47:18,0.12,0.49,0.00,23.87,27.35,30.59,14.01,48.87,1023.39,2025.98,3233.78,2953.90,3376.70,600.14,598.34,3.45,0000 0000 0000 0000 000000
2018-02-15 10:52:20,0.13,0.50,0.00,23.86,27.35,30.59,14.02,48.82,1023.12,2025.97,3231.04,2952.07,3374.38,599.61,597.67,3.50,0000 0000 0000 0000 000000
2018-02-15 10:57:21,0.13,0.50,0.00,23.87,27.37,30.59,13.96,48.81,1023.02,2025.98,3228.31,2950.26,3372.14,599.89,597.97,3.55,0000 0000 0000 0000 000000
2018-02-15 11:02:22,0.12,0.51,0.00,23.87,27.37,30.60,14.06,48.84,1022.97,2025.96,3225.56,2948.43,3369.88,600.29,598.19,3.60,0000 0000 0000 0000 000000
2018-02-15 11:07:23,0.13,0.52,0.00,23.86,27.37,30.60,14.06,48.90,1022.98,2025.95,3222.77,2946.53,3367.57,600.27,598.20,3.65,0000 0000 0000 0000 000000
2018-02-15 11:12:25,0.13,0.52,0.00,23.87,27.38,30.59,13.99,48.91,1022.98,2025.93,3219.97,2944.66,3365.26,599.90,597.97,3.70,0000 0000 0000 0000 000000
2018-02-15 11:17:26,0.12,0.53,0.00,23.87,27.39,30.61,13.99,48.92,1023.01,2025.93,3217.30,2942.92,3363.04,599.83,597.89,3.75,0000 0000 0000 0000 000000
2018-02-15 11:22:27,0.12,0.54,0.00,23.87,27.40,30.61,14.08,49.02,1022.99,2025.90,3214.64,2941.09,3360.73,600.00,598.00,3.80,0000 0000 0000 0000 000000
2018-02-15 11:27:29,0.12,0.54,0.00,23.86,27.40,30.60,13.96,48.99,1022.99,2025.84,3211.94,2939.25,3358.40,599.99,598.02,3.85,0000 0000 0000 0000 000000
2018-02-15 11:32:30,0.13,0.55,0.00,23.87,27.40,30.61,14.00,49.11,1022.98,2025.89,3209.31,2937.43,3356.14,599.96,597.97,3.90,0000 0000 0000 0000 000000
2018-02-15 11:37:31,0.12,0.56,0.00,23.86,27.40,30.62,13.97,48.93,1022.97,2025.86,3206.72,2935.69,3353.94,599.85,597.97,3.95,0000 0000 0000 0000 000000
2018-02-15 11:42:33,0.13,0.56,0.00,23.88,27.40,30.63,14.01,49.00,1022.99,2025.85,3204.10,2933.89,3351.73,599.97,598.04,4.00,0000 0000 0000 0000 000000
2018-02-15 11:47:34,0.10,0.57,0.00,23.87,27.41,30.62,14.03,49.09,1023.00,2025.58,3201.42,2932.09,3349.43,599.99,597.94,4.05,0000 0000 0000 0000 000000
2018-02-15 11:52:35,0.13,0.58,0.00,23.86,27.42,30.62,14.01,49.15,1022.98,2025.63,3198.87,2930.33,3347.29,600.20,598.18,4.10,0000 0000 0000 0000 000000
2018-02-15 11:57:37,0.13,0.58,0.00,23.86,27.42,30.61,14.05,49.08,1022.99,2025.65,3196.28,2928.57,3345.07,600.09,598.17,4.15,0000 0000 0000 0000 000000
2018-02-15 12:02:38,0.11,0.59,0.00,23.88,27.42,30.62,13.94,49.04,1022.99,2025.53,3193.63,2926.76,3342.89,599.96,598.11,4.20,0000 0000 0000 0000 000000
2018-02-15 12:07:39,0.15,0.59,0.00,23.88,27.42,30.61,13.96,49.16,1022.98,2025.56,3191.03,2924.99,3340.76,600.13,598.16,4.25,0000 0000 0000 0000 000000
2018-02-15 12:12:41,0.11,0.60,0.00,23.88,27.42,30.61,13.97,49.05,1022.97,2025.62,3188.50,2923.29,3338.62,600.15,598.14,4.30,0000 0000 0000 0000 000000
2018-02-15 12:17:42,0.13,0.61,0.00,23.88,27.44,30.61,14.12,49.12,1022.97,2025.55,3185.91,2921.52,3336.47,599.97,597.85,4.35,0000 0000 0000 0000 000000
2018-02-15 12:22:43,0.12,0.61,0.00,23.88,27.44,30.62,13.97,49.08,1022.97,2025.50,3183.28,2919.74,3334.31,599.80,597.70,4.40,0000 0000 0000 0000 000000
2018-02-15 12:27:44,0.14,0.62,0.00,23.88,27.45,30.62,14.05,49.12,1022.96,2025.72,3180.79,2918.06,3332.18,600.05,598.04,4.45,0000 0000 0000 0000 000000
2018-02-15 12:32:46,0.09,0.63,0.00,23.88,27.45,30.64,13.96,49.17,1022.96,2025.43,3178.15,2916.25,3330.01,599.70,597.63,4.50,0000 0000 0000 0000 000000
2018-02-15 12:37:47,0.12,0.63,0.00,23.87,27.45,30.62,14.06,49.23,1022.96,2025.32,3175.59,2914.51,3327.83,600.21,598.23,4.55,0000 0000 0000 0000 000000
2018-02-15 12:42:49,0.11,0.64,0.00,23.89,27.45,30.63,14.03,49.27,1022.96,2025.23,3172.94,2912.69,3325.63,599.99,597.95,4.60,0000 0000 0000 0000 000000
2018-02-15 12:47:50,0.12,0.64,0.00,23.89,27.45,30.63,13.99,49.33,1022.96,2025.12,3170.28,2910.84,3323.42,599.87,597.82,4.65,0000 0000 0000 0000 000000
2018-02-15 12:52:51,0.13,0.65,0.00,23.91,27.45,30.63,14.00,49.28,1022.96,2025.17,3167.78,2909.13,3321.34,599.94,597.93,4.70,0000 0000 0000 0000 000000
2018-02-15 12:57:53,0.11,0.66,0.00,23.93,27.45,30.63,14.01,49.29,1022.96,2025.15,3165.24,2907.44,3319.29,600.30,598.11,4.75,0000 0000 0000 0000 000000
2018-02-15 13:02:54,0.13,0.66,0.00,23.95,27.45,30.63,14.05,49.28,1022.96,2025.16,3162.68,2905.74,3317.18,600.37,598.19,4.80,0000 0000 0000 0000 000000